EN

Hourly Weather Ouahigouya

Today, 8 March, Monday

Time Temperature Precipitation Wind Pressure Humidity
00:00 +33°C° 0 mm 3 mps 727 mmHg 20%
01:00 +31°C° 0 mm 3 mps 727 mmHg 20%
02:00 +31°C° 0 mm 3 mps 726 mmHg 20%
03:00 +30°C° 0 mm 3 mps 726 mmHg 21%
04:00 +29°C° 0 mm 2 mps 726 mmHg 22%
05:00 +28°C° 0 mm 2 mps 726 mmHg 24%
06:00 +27°C° 0 mm 2 mps 726 mmHg 25%
07:00 +29°C° 0 mm 1 mps 727 mmHg 22%
08:00 +32°C° 0 mm 1 mps 728 mmHg 19%
09:00 +33°C° 0 mm 0 mps 729 mmHg 16%
10:00 +37°C° 0 mm 1 mps 728 mmHg 14%
11:00 +40°C° 0 mm 2 mps 728 mmHg 13%
12:00 +43°C° 0 mm 3 mps 727 mmHg 12%
13:00 +42°C° 0 mm 2 mps 727 mmHg 12%
14:00 +43°C° 0 mm 2 mps 726 mmHg 11%
15:00 +43°C° 0 mm 1 mps 725 mmHg 11%
16:00 +42°C° 0 mm 1 mps 725 mmHg 13%
17:00 +40°C° 0 mm 1 mps 725 mmHg 14%
18:00 +39°C° 0 mm 1 mps 725 mmHg 15%
19:00 +36°C° 0 mm 1 mps 725 mmHg 16%
20:00 +36°C° 0 mm 2 mps 725 mmHg 17%
21:00 +34°C° 0 mm 2 mps 726 mmHg 18%
22:00 +34°C° 0 mm 2 mps 726 mmHg 21%
23:00 +32°C° 0 mm 2 mps 726 mmHg 23%

Tomorrow, 9 March, Tuesday

Time Temperature Precipitation Wind Pressure Humidity
00:00 +32°C° 0 mm 2 mps 726 mmHg 26%
01:00 +32°C° 0 mm 2 mps 726 mmHg 27%
02:00 +32°C° 0 mm 2 mps 725 mmHg 27%
03:00 +32°C° 0 mm 2 mps 725 mmHg 28%
04:00 +31°C° 0 mm 2 mps 725 mmHg 29%
05:00 +30°C° 0 mm 2 mps 726 mmHg 29%
06:00 +29°C° 0 mm 2 mps 726 mmHg 30%
07:00 +31°C° 0 mm 3 mps 726 mmHg 24%
08:00 +34°C° 0 mm 3 mps 727 mmHg 19%
09:00 +36°C° 0 mm 4 mps 728 mmHg 13%
10:00 +38°C° 0 mm 3 mps 727 mmHg 13%
11:00 +40°C° 0 mm 2 mps 727 mmHg 12%
12:00 +41°C° 0 mm 2 mps 726 mmHg 12%
13:00 +42°C° 0 mm 1 mps 726 mmHg 12%
14:00 +43°C° 0 mm 1 mps 725 mmHg 12%
15:00 +40°C° 0 mm 0 mps 724 mmHg 12%
16:00 +42°C° 0 mm 1 mps 724 mmHg 13%
17:00 +41°C° 0 mm 1 mps 724 mmHg 14%
18:00 +40°C° 0 mm 2 mps 724 mmHg 15%
19:00 +37°C° 0 mm 1 mps 724 mmHg 17%
20:00 +36°C° 0 mm 1 mps 725 mmHg 19%
21:00 +34°C° 0 mm 1 mps 725 mmHg 20%
22:00 +35°C° 0 mm 2 mps 725 mmHg 21%
23:00 +36°C° 0 mm 2 mps 726 mmHg 21%

Day after tomorrow, 10 March, Wednesday

Time Temperature Precipitation Wind Pressure Humidity
00:00 +36°C° 0 mm 3 mps 726 mmHg 22%
01:00 +34°C° 0 mm 3 mps 726 mmHg 20%
02:00 +33°C° 0 mm 4 mps 725 mmHg 18%
03:00 +30°C° 0 mm 4 mps 725 mmHg 16%
04:00 +29°C° 0 mm 4 mps 725 mmHg 16%
05:00 +28°C° 0 mm 4 mps 726 mmHg 16%
06:00 +27°C° 0 mm 4 mps 726 mmHg 17%
07:00 +30°C° 0 mm 5 mps 726 mmHg 15%
08:00 +33°C° 0 mm 6 mps 727 mmHg 13%
09:00 +35°C° 0 mm 6 mps 728 mmHg 11%
10:00 +38°C° 0 mm 6 mps 728 mmHg 10%
11:00 +39°C° 0 mm 5 mps 728 mmHg 9%
12:00 +41°C° 0 mm 5 mps 727 mmHg 8%
13:00 +42°C° 0 mm 5 mps 727 mmHg 8%
14:00 +42°C° 0 mm 4 mps 726 mmHg 8%
15:00 +43°C° 0 mm 4 mps 725 mmHg 8%
16:00 +42°C° 0 mm 4 mps 725 mmHg 9%
17:00 +39°C° 0 mm 3 mps 725 mmHg 9%
18:00 +38°C° 0 mm 3 mps 725 mmHg 10%
19:00 +36°C° 0 mm 3 mps 725 mmHg 11%
20:00 +35°C° 0 mm 4 mps 726 mmHg 12%
21:00 +33°C° 0 mm 5 mps 726 mmHg 14%
22:00 +32°C° 0 mm 5 mps 726 mmHg 14%
23:00 +30°C° 0 mm 5 mps 726 mmHg 14%

11 March, Thursday

Time Temperature Precipitation Wind Pressure Humidity
00:00 +30°C° 0 mm 6 mps 726 mmHg 15%
01:00 +29°C° 0 mm 5 mps 726 mmHg 15%
02:00 +28°C° 0 mm 5 mps 726 mmHg 15%
03:00 +27°C° 0 mm 5 mps 726 mmHg 15%
04:00 +26°C° 0 mm 4 mps 726 mmHg 16%
05:00 +25°C° 0 mm 3 mps 726 mmHg 17%
06:00 +24°C° 0 mm 2 mps 726 mmHg 17%
07:00 +26°C° 0 mm 3 mps 727 mmHg 15%
08:00 +29°C° 0 mm 3 mps 728 mmHg 12%
09:00 +32°C° 0 mm 4 mps 729 mmHg 10%
10:00 +34°C° 0 mm 4 mps 728 mmHg 9%
11:00 +36°C° 0 mm 3 mps 728 mmHg 8%
12:00 +38°C° 0 mm 3 mps 728 mmHg 7%
13:00 +39°C° 0 mm 3 mps 727 mmHg 7%
14:00 +40°C° 0 mm 3 mps 726 mmHg 7%
15:00 +42°C° 0 mm 3 mps 726 mmHg 7%
16:00 +39°C° 0 mm 3 mps 726 mmHg 8%
17:00 +38°C° 0 mm 3 mps 725 mmHg 9%
18:00 +37°C° 0 mm 3 mps 725 mmHg 10%
19:00 +35°C° 0 mm 3 mps 726 mmHg 10%
20:00 +34°C° 0 mm 3 mps 726 mmHg 11%
21:00 +32°C° 0 mm 4 mps 727 mmHg 12%
22:00 +30°C° 0 mm 5 mps 727 mmHg 11%
23:00 +29°C° 0 mm 6 mps 727 mmHg 11%

12 March, Friday

Time Temperature Precipitation Wind Pressure Humidity
00:00 +28°C° 0 mm 6 mps 727 mmHg 10%
01:00 +27°C° 0 mm 7 mps 727 mmHg 12%
02:00 +26°C° 0 mm 7 mps 727 mmHg 14%
03:00 +24°C° 0 mm 7 mps 727 mmHg 17%
04:00 +23°C° 0 mm 7 mps 727 mmHg 18%
05:00 +23°C° 0 mm 7 mps 727 mmHg 19%
06:00 +22°C° 0 mm 7 mps 727 mmHg 20%
07:00 +24°C° 0 mm 7 mps 728 mmHg 19%
08:00 +26°C° 0 mm 7 mps 729 mmHg 18%
09:00 +28°C° 0 mm 7 mps 730 mmHg 17%
10:00 +30°C° 0 mm 7 mps 729 mmHg 15%
11:00 +33°C° 0 mm 6 mps 729 mmHg 13%
12:00 +35°C° 0 mm 5 mps 729 mmHg 11%
13:00 +36°C° 0 mm 5 mps 728 mmHg 11%
14:00 +37°C° 0 mm 5 mps 727 mmHg 10%
15:00 +38°C° 0 mm 4 mps 727 mmHg 9%
16:00 +37°C° 0 mm 4 mps 726 mmHg 10%
17:00 +35°C° 0 mm 4 mps 726 mmHg 11%
18:00 +34°C° 0 mm 3 mps 726 mmHg 12%
19:00 +31°C° 0 mm 3 mps 727 mmHg 12%
20:00 +30°C° 0 mm 3 mps 727 mmHg 13%
21:00 +28°C° 0 mm 3 mps 728 mmHg 14%
22:00 +27°C° 0 mm 4 mps 728 mmHg 14%
23:00 +26°C° 0 mm 4 mps 728 mmHg 15%

13 March, Saturday

Time Temperature Precipitation Wind Pressure Humidity
00:00 +25°C° 0 mm 4 mps 728 mmHg 15%
01:00 +25°C° 0 mm 4 mps 728 mmHg 16%
02:00 +23°C° 0 mm 5 mps 728 mmHg 18%
03:00 +22°C° 0 mm 5 mps 727 mmHg 19%
04:00 +22°C° 0 mm 5 mps 728 mmHg 20%
05:00 +22°C° 0 mm 5 mps 728 mmHg 21%
06:00 +21°C° 0 mm 6 mps 728 mmHg 21%
07:00 +23°C° 0 mm 6 mps 729 mmHg 20%
08:00 +26°C° 0 mm 7 mps 729 mmHg 18%
09:00 +29°C° 0 mm 8 mps 730 mmHg 16%
10:00 +32°C° 0 mm 7 mps 730 mmHg 15%
11:00 +34°C° 0 mm 6 mps 730 mmHg 13%
12:00 +36°C° 0 mm 5 mps 729 mmHg 11%
13:00 +37°C° 0 mm 4 mps 729 mmHg 11%
14:00 +37°C° 0 mm 4 mps 728 mmHg 10%
15:00 +38°C° 0 mm 3 mps 727 mmHg 10%
16:00 +37°C° 0 mm 3 mps 727 mmHg 10%
17:00 +36°C° 0 mm 3 mps 727 mmHg 11%
18:00 +35°C° 0 mm 3 mps 726 mmHg 12%
19:00 +33°C° 0 mm 3 mps 727 mmHg 13%
20:00 +30°C° 0 mm 3 mps 728 mmHg 14%
21:00 +29°C° 0 mm 3 mps 728 mmHg 15%
22:00 +28°C° 0 mm 3 mps 728 mmHg 15%
23:00 +27°C° 0 mm 4 mps 728 mmHg 16%
Show more

We Need Your Consent

Meteoprog and our Service Providers may store and access personal data such as cookies, device identifiers or other similar technologies on your device and process such data to personalise content and ads, as well as provide social media features and to analyse the traffic.

  • Store and/or access information on your device

    Cookies, device identifiers or other information can be stored or accessed on your device for the purposes indicated above.

  • Personalised ads and content, ad and content measurement, audience insights, and products development

    Ads and content can be personalised based on a profile. More data can be added to better personalise ads and content. Ad and content performance can be measured. Insights about the audience who saw the ads and content can be derived. Such data can be used to develop or improve user’s experience, systems and software.

By clicking ‘I Agree’ you will allow the use of indicated cookies, device identifiers, web beacons or other similar technologies. Your settings can be changed in the browser on your device.

For certain purposes, legitimate interests may be relied on, rather than consent. You can read more about this in our Privacy and Cookie Policy.